Tracking 17155 objects as of 29-July-2015
HD Live streaming from Space Station

SYRACUSE 3B

Track SYRACUSE 3B now!
SYRACUSE 3B is classified as:


NORAD ID: 29273
Int'l Code: 2006-033B
Perigee: 35,781.8 km
Apogee: 35,805.9 km
Inclination: 0.0 °
Period: 1,436.1 minutes
Semi major axis: 42164 km
RCS: 25.7711 m2 (large)
Launch date: August 11, 2006
Source: France (FR)

Syracuse 3B is a French military geostationary satellite. It carries four spot beams in SHF frequencies and two spot beams in EHF frequencies.
Your satellite tracking list
Your tracking list is empty





NASA's NSSDC Master Catalog

Two Line Element Set (TLE):
1 29273U 06033B   15209.82513191 -.00000051  00000-0  00000+0 0  9998
2 29273 000.0127 076.7481 0002854 049.0131 112.2374 01.00271355 32879

Source of the keplerian elements: AFSPC

N2YO: 264